Year,Month,Day,Hour,Minute,Value (Times are PST for temperature in C)
2012,09,18,09,00,15.40
2012,09,18,09,01,15.40
2012,09,18,09,02,15.40
2012,09,18,09,03,15.40
2012,09,18,09,04,15.50
2012,09,18,09,05,15.50
2012,09,18,09,06,15.50
2012,09,18,09,07,15.60
2012,09,18,09,08,15.60
2012,09,18,09,09,15.70
2012,09,18,09,10,15.70
2012,09,18,09,11,15.70
2012,09,18,09,12,15.80
2012,09,18,09,13,15.80
2012,09,18,09,14,15.80
2012,09,18,09,15,15.90
2012,09,18,09,16,15.90
2012,09,18,09,17,15.90
2012,09,18,09,18,16.00
2012,09,18,09,19,16.00
2012,09,18,09,20,16.00
2012,09,18,09,21,16.10
2012,09,18,09,22,16.20
2012,09,18,09,23,16.20
2012,09,18,09,24,16.30
2012,09,18,09,25,16.30
2012,09,18,09,26,16.30
2012,09,18,09,27,16.30
2012,09,18,09,28,16.40
2012,09,18,09,29,16.40
2012,09,18,09,30,16.40
2012,09,18,09,31,16.50
2012,09,18,09,32,16.50
2012,09,18,09,33,16.50
2012,09,18,09,34,16.60
2012,09,18,09,35,16.60
2012,09,18,09,36,16.60
2012,09,18,09,37,16.60
2012,09,18,09,38,16.60
2012,09,18,09,39,16.60
2012,09,18,09,40,16.60
2012,09,18,09,41,16.60
2012,09,18,09,42,16.60
2012,09,18,09,43,16.60
2012,09,18,09,44,16.60
2012,09,18,09,45,16.70
2012,09,18,09,46,16.70
2012,09,18,09,47,16.70
2012,09,18,09,48,16.70
2012,09,18,09,49,16.70
2012,09,18,09,50,16.70
2012,09,18,09,51,16.80
2012,09,18,09,52,16.80
2012,09,18,09,53,16.80
2012,09,18,09,54,16.80
2012,09,18,09,55,16.80
2012,09,18,09,56,16.80
2012,09,18,09,57,16.80
2012,09,18,09,58,16.80
2012,09,18,09,59,16.70
2012,09,18,10,00,16.70
2012,09,18,10,01,16.70
2012,09,18,10,02,16.70
2012,09,18,10,03,16.70
2012,09,18,10,04,16.70
2012,09,18,10,05,16.60
2012,09,18,10,06,16.60
2012,09,18,10,07,16.60
2012,09,18,10,08,16.60
2012,09,18,10,09,16.60
2012,09,18,10,10,16.60
2012,09,18,10,11,16.70
2012,09,18,10,12,16.70
2012,09,18,10,13,16.70
2012,09,18,10,14,16.80
2012,09,18,10,15,16.90
2012,09,18,10,16,16.90
2012,09,18,10,17,17.00
2012,09,18,10,18,17.00
2012,09,18,10,19,17.10
2012,09,18,10,20,17.10
2012,09,18,10,21,17.10
2012,09,18,10,22,17.10
2012,09,18,10,23,17.20
2012,09,18,10,24,17.20
2012,09,18,10,25,17.20
2012,09,18,10,26,17.10
2012,09,18,10,27,17.10
2012,09,18,10,28,17.10
2012,09,18,10,29,17.10
2012,09,18,10,30,17.10
2012,09,18,10,31,17.10
2012,09,18,10,32,17.10
2012,09,18,10,33,17.20
2012,09,18,10,34,17.20
2012,09,18,10,35,17.30
2012,09,18,10,36,17.40
2012,09,18,10,37,17.50
2012,09,18,10,38,17.50
2012,09,18,10,39,17.60
2012,09,18,10,40,17.70
2012,09,18,10,41,17.70
2012,09,18,10,42,17.70
2012,09,18,10,43,17.70
2012,09,18,10,44,17.70
2012,09,18,10,45,17.70
2012,09,18,10,46,17.70
2012,09,18,10,47,17.70
2012,09,18,10,48,17.70
2012,09,18,10,49,17.70
2012,09,18,10,50,17.70
2012,09,18,10,51,17.70
2012,09,18,10,52,17.70
2012,09,18,10,53,17.70
2012,09,18,10,54,17.60
2012,09,18,10,55,17.60
2012,09,18,10,56,17.70
2012,09,18,10,57,17.70
2012,09,18,10,58,17.80
2012,09,18,10,59,17.90
2012,09,18,11,00,18.00
2012,09,18,11,01,18.00
2012,09,18,11,02,18.10
2012,09,18,11,03,18.20
2012,09,18,11,04,18.20
2012,09,18,11,05,18.20
2012,09,18,11,06,18.30
2012,09,18,11,07,18.30
2012,09,18,11,08,18.30
2012,09,18,11,09,18.30
2012,09,18,11,10,18.30
2012,09,18,11,11,18.30
2012,09,18,11,12,18.30
2012,09,18,11,13,18.30
2012,09,18,11,14,18.30
2012,09,18,11,15,18.20
2012,09,18,11,16,18.20
2012,09,18,11,17,18.20
2012,09,18,11,18,18.20
2012,09,18,11,19,18.20
2012,09,18,11,20,18.20
2012,09,18,11,21,18.20
2012,09,18,11,22,18.30
2012,09,18,11,23,18.40
2012,09,18,11,24,18.50
2012,09,18,11,25,18.70
2012,09,18,11,26,18.80
2012,09,18,11,27,19.00
2012,09,18,11,28,19.10
2012,09,18,11,29,19.20
2012,09,18,11,30,19.20
2012,09,18,11,31,19.30
2012,09,18,11,32,19.30
2012,09,18,11,33,19.30
2012,09,18,11,34,19.30
2012,09,18,11,35,19.30
2012,09,18,11,36,19.40
2012,09,18,11,37,19.50
2012,09,18,11,38,19.60
2012,09,18,11,39,19.70
2012,09,18,11,40,19.80
2012,09,18,11,41,19.90
2012,09,18,11,42,20.00
2012,09,18,11,43,20.00
2012,09,18,11,44,20.10
2012,09,18,11,45,20.10
2012,09,18,11,46,20.10
2012,09,18,11,47,20.10
2012,09,18,11,48,20.10
2012,09,18,11,49,20.10
2012,09,18,11,50,20.20
2012,09,18,11,51,20.20
2012,09,18,11,52,20.20
2012,09,18,11,53,20.20
2012,09,18,11,54,20.30
2012,09,18,11,55,20.30
2012,09,18,11,56,20.30
2012,09,18,11,57,20.30
2012,09,18,11,58,20.30
2012,09,18,11,59,20.40
2012,09,18,12,00,20.40
2012,09,18,12,01,20.50
2012,09,18,12,02,20.50
2012,09,18,12,03,20.50
2012,09,18,12,04,20.60
2012,09,18,12,05,20.70
2012,09,18,12,06,20.70
2012,09,18,12,07,20.80
2012,09,18,12,08,20.80
2012,09,18,12,09,20.80
2012,09,18,12,10,20.80
2012,09,18,12,11,20.80
2012,09,18,12,12,20.80
2012,09,18,12,13,20.80
2012,09,18,12,14,20.80
2012,09,18,12,15,20.80
2012,09,18,12,16,20.80
2012,09,18,12,17,20.80
2012,09,18,12,18,20.80
2012,09,18,12,19,20.80
2012,09,18,12,20,20.80
2012,09,18,12,21,20.80
2012,09,18,12,22,20.80
2012,09,18,12,23,20.80
2012,09,18,12,24,20.80
2012,09,18,12,25,20.80
2012,09,18,12,26,20.80
2012,09,18,12,27,20.70
2012,09,18,12,28,20.70
2012,09,18,12,29,20.70
2012,09,18,12,30,20.80
2012,09,18,12,31,20.70
2012,09,18,12,32,20.70
2012,09,18,12,33,20.60
2012,09,18,12,34,20.50
2012,09,18,12,35,20.40
2012,09,18,12,36,20.30
2012,09,18,12,37,20.30
2012,09,18,12,38,20.30
2012,09,18,12,39,20.30
2012,09,18,12,40,20.30
2012,09,18,12,41,20.20
2012,09,18,12,42,20.10
2012,09,18,12,43,20.00
2012,09,18,12,44,20.00
2012,09,18,12,45,19.90
2012,09,18,12,46,19.80
2012,09,18,12,47,19.70
2012,09,18,12,48,19.80
2012,09,18,12,49,19.80
2012,09,18,12,50,19.80
2012,09,18,12,51,19.80
2012,09,18,12,52,19.70
2012,09,18,12,53,19.70
2012,09,18,12,54,19.70
2012,09,18,12,55,19.70
2012,09,18,12,56,19.80
2012,09,18,12,57,19.70
2012,09,18,12,58,19.80
2012,09,18,12,59,19.80
2012,09,18,13,00,19.90
2012,09,18,13,01,19.90
2012,09,18,13,02,19.80
2012,09,18,13,03,19.80
2012,09,18,13,04,19.80
2012,09,18,13,05,19.80
2012,09,18,13,06,19.80
2012,09,18,13,07,19.80
2012,09,18,13,08,19.90
2012,09,18,13,09,20.00
2012,09,18,13,10,19.90
2012,09,18,13,11,19.90
2012,09,18,13,12,20.00
2012,09,18,13,13,20.00
2012,09,18,13,14,20.00
2012,09,18,13,15,19.90
2012,09,18,13,16,20.00
2012,09,18,13,17,20.10
2012,09,18,13,18,20.20
2012,09,18,13,19,20.30
2012,09,18,13,20,20.30
2012,09,18,13,21,20.30
2012,09,18,13,22,20.40
2012,09,18,13,23,20.40
2012,09,18,13,24,20.50
2012,09,18,13,25,20.60
2012,09,18,13,26,20.60
2012,09,18,13,27,20.70
2012,09,18,13,28,20.70
2012,09,18,13,29,20.70
2012,09,18,13,30,20.80
2012,09,18,13,31,20.90
2012,09,18,13,32,21.00
2012,09,18,13,33,21.10
2012,09,18,13,34,21.30
2012,09,18,13,35,21.40
2012,09,18,13,36,21.50
2012,09,18,13,37,21.60
2012,09,18,13,38,21.70
2012,09,18,13,39,21.70
2012,09,18,13,40,21.70
2012,09,18,13,41,21.70
2012,09,18,13,42,21.80
2012,09,18,13,43,21.70
2012,09,18,13,44,21.70
2012,09,18,13,45,21.60
2012,09,18,13,46,21.50
2012,09,18,13,47,21.50
2012,09,18,13,48,21.40
2012,09,18,13,49,21.40
2012,09,18,13,50,21.30
2012,09,18,13,51,21.20
2012,09,18,13,52,21.20
2012,09,18,13,53,21.20
2012,09,18,13,54,21.20
2012,09,18,13,55,21.30
2012,09,18,13,56,21.30
2012,09,18,13,57,21.40
2012,09,18,13,58,21.40
2012,09,18,13,59,21.40
2012,09,18,14,00,21.40
2012,09,18,14,01,21.40
2012,09,18,14,02,21.40
2012,09,18,14,03,21.30
2012,09,18,14,04,21.30
2012,09,18,14,05,21.30
2012,09,18,14,06,21.30
2012,09,18,14,07,21.40
2012,09,18,14,08,21.40
2012,09,18,14,09,21.50
2012,09,18,14,10,21.60
2012,09,18,14,11,21.70
2012,09,18,14,12,21.80
2012,09,18,14,13,21.90
2012,09,18,14,14,22.00
2012,09,18,14,15,22.00
2012,09,18,14,16,22.00
2012,09,18,14,17,22.00
2012,09,18,14,18,21.90
2012,09,18,14,19,21.70
2012,09,18,14,20,21.60
2012,09,18,14,21,21.60
2012,09,18,14,22,21.50
2012,09,18,14,23,21.50
2012,09,18,14,24,21.60
2012,09,18,14,25,21.60
2012,09,18,14,26,21.60
2012,09,18,14,27,21.60
2012,09,18,14,28,21.60
2012,09,18,14,29,21.60
2012,09,18,14,30,21.70
2012,09,18,14,31,21.70
2012,09,18,14,32,21.80
2012,09,18,14,33,21.90
2012,09,18,14,34,22.00
2012,09,18,14,35,22.10
2012,09,18,14,36,22.10
2012,09,18,14,37,22.00
2012,09,18,14,38,22.00
2012,09,18,14,39,22.00
2012,09,18,14,40,22.10
2012,09,18,14,41,22.10
2012,09,18,14,42,22.10
2012,09,18,14,43,22.10
2012,09,18,14,44,22.20
2012,09,18,14,45,22.20
2012,09,18,14,46,22.20
2012,09,18,14,47,22.10
2012,09,18,14,48,22.10
2012,09,18,14,49,22.10
2012,09,18,14,50,22.10
2012,09,18,14,51,22.20
2012,09,18,14,52,22.20
2012,09,18,14,53,22.30
2012,09,18,14,54,22.30
2012,09,18,14,55,22.40
2012,09,18,14,56,22.40
2012,09,18,14,57,22.40
2012,09,18,14,58,22.40
2012,09,18,14,59,22.40
2012,09,18,15,00,22.50
2012,09,18,15,01,22.50
2012,09,18,15,02,22.50
2012,09,18,15,03,22.50
2012,09,18,15,04,22.60
2012,09,18,15,05,22.50
2012,09,18,15,06,22.50
2012,09,18,15,07,22.40
2012,09,18,15,08,22.30
2012,09,18,15,09,22.30
2012,09,18,15,10,22.30
2012,09,18,15,11,22.30
2012,09,18,15,12,22.30
2012,09,18,15,13,22.30
2012,09,18,15,14,22.30
2012,09,18,15,15,22.20
2012,09,18,15,16,22.20
2012,09,18,15,17,22.20
2012,09,18,15,18,22.20
2012,09,18,15,19,22.10
2012,09,18,15,20,22.10
2012,09,18,15,21,22.00
2012,09,18,15,22,22.00
2012,09,18,15,23,22.00
2012,09,18,15,24,22.10
2012,09,18,15,25,22.10
2012,09,18,15,26,22.10
2012,09,18,15,27,22.10
2012,09,18,15,28,22.10
2012,09,18,15,29,22.00
2012,09,18,15,30,22.00
2012,09,18,15,31,22.10
2012,09,18,15,32,22.10
2012,09,18,15,33,22.10
2012,09,18,15,34,22.20
2012,09,18,15,35,22.10
2012,09,18,15,36,22.10
2012,09,18,15,37,22.10
2012,09,18,15,38,22.10
2012,09,18,15,39,22.00
2012,09,18,15,40,22.00
2012,09,18,15,41,22.00
2012,09,18,15,42,22.00
2012,09,18,15,43,21.90
2012,09,18,15,44,21.90
2012,09,18,15,45,21.90
2012,09,18,15,46,22.00
2012,09,18,15,47,21.90
2012,09,18,15,48,21.90
2012,09,18,15,49,22.00
2012,09,18,15,50,22.00
2012,09,18,15,51,22.10
2012,09,18,15,52,22.10
2012,09,18,15,53,22.10
2012,09,18,15,54,22.10
2012,09,18,15,55,22.20
2012,09,18,15,56,22.20
2012,09,18,15,57,22.20
2012,09,18,15,58,22.10
2012,09,18,15,59,22.10
2012,09,18,16,00,22.20
2012,09,18,16,01,22.20
2012,09,18,16,02,22.20
2012,09,18,16,03,22.20
2012,09,18,16,04,22.30
2012,09,18,16,05,22.30
2012,09,18,16,06,22.30
2012,09,18,16,07,22.30
2012,09,18,16,08,22.30
2012,09,18,16,09,22.30
2012,09,18,16,10,22.30
2012,09,18,16,11,22.40
2012,09,18,16,12,22.40
2012,09,18,16,13,22.50
2012,09,18,16,14,22.50
2012,09,18,16,15,22.60
2012,09,18,16,16,22.60
2012,09,18,16,17,22.60
2012,09,18,16,18,22.60
2012,09,18,16,19,22.60
2012,09,18,16,20,22.70
2012,09,18,16,21,22.70
2012,09,18,16,22,22.80
2012,09,18,16,23,22.80
2012,09,18,16,24,22.80
2012,09,18,16,25,22.80
2012,09,18,16,26,22.90
2012,09,18,16,27,22.90
2012,09,18,16,28,23.00
2012,09,18,16,29,23.10
2012,09,18,16,30,23.10
2012,09,18,16,31,23.20
2012,09,18,16,32,23.30
2012,09,18,16,33,23.30
2012,09,18,16,34,23.40
2012,09,18,16,35,23.40
2012,09,18,16,36,23.40
2012,09,18,16,37,23.40
2012,09,18,16,38,23.40
2012,09,18,16,39,23.30
2012,09,18,16,40,23.40
2012,09,18,16,41,23.40
2012,09,18,16,42,23.40
2012,09,18,16,43,23.40
2012,09,18,16,44,23.40
2012,09,18,16,45,23.40
2012,09,18,16,46,23.30
2012,09,18,16,47,23.20
2012,09,18,16,48,23.10
2012,09,18,16,49,23.10
2012,09,18,16,50,23.10
2012,09,18,16,51,23.10
2012,09,18,16,52,23.10
2012,09,18,16,53,23.10
2012,09,18,16,54,23.20
2012,09,18,16,55,23.20
2012,09,18,16,56,23.20
2012,09,18,16,57,23.30
2012,09,18,16,58,23.30
2012,09,18,16,59,23.30
2012,09,18,17,00,23.30
2012,09,18,17,01,23.30
2012,09,18,17,02,23.30
2012,09,18,17,03,23.20
2012,09,18,17,04,23.20
2012,09,18,17,05,23.10
2012,09,18,17,06,23.10
2012,09,18,17,07,23.10
2012,09,18,17,08,23.00
2012,09,18,17,09,23.00
2012,09,18,17,10,23.00
2012,09,18,17,11,22.90
2012,09,18,17,12,22.90
2012,09,18,17,13,22.90
2012,09,18,17,14,22.90
2012,09,18,17,15,22.90
2012,09,18,17,16,23.00
2012,09,18,17,17,23.00
2012,09,18,17,18,23.00
2012,09,18,17,19,23.00
2012,09,18,17,20,22.90
2012,09,18,17,21,22.90
2012,09,18,17,22,22.90
2012,09,18,17,23,22.80
2012,09,18,17,24,22.80
2012,09,18,17,25,22.80
2012,09,18,17,26,22.80
2012,09,18,17,27,22.80
2012,09,18,17,28,22.70
2012,09,18,17,29,22.70
2012,09,18,17,30,22.70
2012,09,18,17,31,22.70
2012,09,18,17,32,22.60
2012,09,18,17,33,22.50
2012,09,18,17,34,22.50
2012,09,18,17,35,22.40
2012,09,18,17,36,22.40
2012,09,18,17,37,22.40
2012,09,18,17,38,22.30
2012,09,18,17,39,22.30
2012,09,18,17,40,22.30
2012,09,18,17,41,22.30
2012,09,18,17,42,22.30
2012,09,18,17,43,22.30
2012,09,18,17,44,22.40
2012,09,18,17,45,22.40
2012,09,18,17,46,22.40
2012,09,18,17,47,22.40
2012,09,18,17,48,22.40
2012,09,18,17,49,22.50
2012,09,18,17,50,22.50
2012,09,18,17,51,22.50
2012,09,18,17,52,22.60
2012,09,18,17,53,22.60
2012,09,18,17,54,22.60
2012,09,18,17,55,22.60
2012,09,18,17,56,22.60
2012,09,18,17,57,22.70
2012,09,18,17,58,22.70
2012,09,18,17,59,22.70
2012,09,18,18,00,22.70
2012,09,18,18,01,22.80
2012,09,18,18,02,22.80
2012,09,18,18,03,22.70
2012,09,18,18,04,22.70
2012,09,18,18,05,22.70
2012,09,18,18,06,22.70
2012,09,18,18,07,22.60
2012,09,18,18,08,22.60
2012,09,18,18,09,22.60
2012,09,18,18,10,22.60
2012,09,18,18,11,22.60
2012,09,18,18,12,22.60
2012,09,18,18,13,22.60
2012,09,18,18,14,22.60
2012,09,18,18,15,22.60
2012,09,18,18,16,22.60
2012,09,18,18,17,22.60
2012,09,18,18,18,22.60
2012,09,18,18,19,22.60
